Location: Hermaringen
(48.5952°N, 10.2585°E)
Time: 14:02:42
(UTC+00:00)

Courier 1B Rocket - Pass Details

Date: 19 February 2026
Orbit: 920 x 1201 km, 28.2° (Epoch: 13 March)

Event Time Altitude Azimuth Distance (km) Brightness Sun altitude
Rises 18:44:00 0° 219° (SW) 3,544 8.4 -20.0°
Reaches altitude 10° 18:50:01 10° 175° (S) 2,634 7.1 -21.0°
Maximum altitude 18:50:21 10° 171° (S) 2,634 7.1 -21.1°
Drops below altitude 10° 18:50:42 10° 168° (SSE) 2,640 7.1 -21.1°
Enters shadow 18:51:32 10° 161° (SSE) 2,682 7.0 -21.3°
